Weather History for Crestview, FL

Change the Weather History Date:

Sunday, November 4, 2012

  Actual Average Record
Temperature  
Mean Temperature 68 °F -  
Max Temperature 80 °F - - ()
Min Temperature 57 °F - - ()
Cooling Degree Days 3    
Growing Degree Days 18 (Base 50)    
Moisture  
Dew Point 59 °F    
Average Humidity 92    
Maximum Humidity 100    
Minimum Humidity 43    
Precipitation  
Precipitation 0.01 in - - ()
Sea Level Pressure  
Sea Level Pressure 30.07 in    
Wind  
Wind Speed 1 mph (WNW)    
Max Wind Speed 12 mph    
Max Gust Speed 17 mph    
Visibility 4 miles    
Events Fog    
T = Trace of Precipitation, MM = Missing Value Source: NWS Daily Summary

Daily Weather History Graph

Daily Weather History Graph

Search for Another Location

Airport:

Trip Planner

Search our weather history database for the weather conditions in past years. The results will help you decide how hot, cold, wet, or windy it might be!

Date:

Astronomy

Nov. 04, 2012 Rise Set
Actual Time 6:03 AM CST 4:55 PM CST
Civil Twilight 5:38 AM CST 5:20 PM CST
Nautical Twilight 5:09 AM CST 5:48 PM CST
Astronomical Twilight 4:41 AM CST 6:17 PM CST
Moon 9:36 PM CST (11/4) 10:42 AM CST (11/4)
Length of Visible Light 11h 41m
Length of Day
10h 51m
Waning Gibbous, 72% of the Moon is Illuminated
Nov 4
Waning Gibbous
Nov 6
Last Quarter
Nov 13
New
Nov 20
First Quarter
Nov 28
Full

Hourly Weather History & Observations

Time (CST) Temp. Dew Point Humidity Pressure Visibility Wind Dir Wind Speed Gust Speed Precip Events Conditions
12:25 AM 59.0 °F 59.0 °F 100% 30.09 in 2.5 mi Calm Calm - N/A   Clear
12:26 AM 59.0 °F 59.0 °F 100% 30.09 in 1.8 mi Calm Calm - N/A   Clear
12:27 AM 59.0 °F 59.0 °F 100% 30.09 in 1.2 mi Calm Calm - N/A   Clear
12:35 AM 59.0 °F 59.0 °F 100% 30.08 in 1.8 mi Calm Calm - N/A   Clear
12:36 AM 59.0 °F 59.0 °F 100% 30.08 in 2.0 mi Calm Calm - N/A   Clear
12:37 AM 60.8 °F 59.0 °F 94% 30.08 in 1.8 mi Calm Calm - N/A   Clear
12:38 AM 60.8 °F 59.0 °F 94% 30.08 in 1.2 mi Calm Calm - N/A   Clear
12:39 AM 59.0 °F 59.0 °F 100% 30.08 in 1.0 mi Calm Calm - N/A   Clear
12:47 AM 59.0 °F 59.0 °F 100% 30.08 in 1.2 mi Calm Calm - N/A   Clear
12:48 AM 59.0 °F 59.0 °F 100% 30.08 in 2.0 mi Calm Calm - N/A   Clear
12:49 AM 59.0 °F 59.0 °F 100% 30.08 in 3.0 mi Calm Calm - N/A   Clear
12:55 AM 58.5 °F 58.3 °F 99% 30.08 in 6.0 mi Calm Calm - N/A   Clear
1:12 AM 59.0 °F 59.0 °F 100% 30.08 in 2.5 mi Calm Calm - N/A   Clear
1:13 AM 59.0 °F 59.0 °F 100% 30.08 in 2.0 mi Calm Calm - N/A   Clear
1:14 AM 59.0 °F 59.0 °F 100% 30.08 in 1.5 mi Calm Calm - N/A   Clear
1:15 AM 59.0 °F 59.0 °F 100% 30.08 in 1.2 mi Calm Calm - N/A   Clear
1:16 AM 59.0 °F 59.0 °F 100% 30.08 in 1.0 mi Calm Calm - N/A   Clear
1:23 AM 59.0 °F 59.0 °F 100% 30.08 in 1.2 mi Calm Calm - N/A   Clear
1:25 AM 59.0 °F 59.0 °F 100% 30.08 in 1.5 mi Calm Calm - N/A   Clear
1:33 AM 59.0 °F 59.0 °F 100% 30.08 in 2.0 mi Calm Calm - N/A   Clear
1:34 AM 59.0 °F 59.0 °F 100% 30.08 in 2.5 mi Calm Calm - N/A   Clear
1:35 AM 60.8 °F 59.0 °F 94% 30.08 in 3.0 mi Calm Calm - N/A   Clear
1:40 AM 60.8 °F 60.8 °F 100% 30.08 in 2.5 mi Calm Calm - N/A   Clear
1:41 AM 60.8 °F 60.8 °F 100% 30.08 in 2.0 mi Calm Calm - N/A   Clear
1:42 AM 60.8 °F 59.0 °F 94% 30.08 in 1.5 mi Calm Calm - N/A   Clear
1:43 AM 59.0 °F 59.0 °F 100% 30.08 in 1.0 mi Calm Calm - N/A   Clear
1:44 AM 59.0 °F 59.0 °F 100% 30.08 in 0.8 mi Calm Calm - N/A   Clear
1:46 AM 59.0 °F 59.0 °F 100% 30.08 in 0.5 mi Calm Calm - N/A Fog Fog
1:55 AM 59.0 °F 58.8 °F 99% 30.08 in 0.5 mi Calm Calm - N/A Fog Fog
1:56 AM 59.0 °F 59.0 °F 100% 30.08 in 0.8 mi Calm Calm - N/A   Clear
1:59 AM 59.0 °F 59.0 °F 100% 30.08 in 1.2 mi Calm Calm - N/A   Clear
1:00 AM 59.0 °F 59.0 °F 100% 30.08 in 1.5 mi Calm Calm - N/A   Clear
1:02 AM 59.0 °F 59.0 °F 100% 30.08 in 1.2 mi Calm Calm - N/A   Clear
1:03 AM 59.0 °F 59.0 °F 100% 30.08 in 1.0 mi Calm Calm - N/A   Clear
1:06 AM 59.0 °F 59.0 °F 100% 30.08 in 0.8 mi Calm Calm - N/A   Clear
1:12 AM 57.2 °F 57.2 °F 100% 30.08 in 1.0 mi Calm Calm - N/A   Clear
1:14 AM 57.2 °F 57.2 °F 100% 30.08 in 1.2 mi Calm Calm - N/A   Clear
1:15 AM 57.2 °F 57.2 °F 100% 30.08 in 1.5 mi Calm Calm - N/A   Clear
1:16 AM 57.2 °F 57.2 °F 100% 30.08 in 2.0 mi Calm Calm - N/A   Clear
1:18 AM 59.0 °F 57.2 °F 94% 30.08 in 2.5 mi WSW 3.5 mph - N/A   Clear
1:19 AM 59.0 °F 59.0 °F 100% 30.08 in 3.0 mi WSW 3.5 mph - N/A   Clear
1:55 AM 57.6 °F 57.2 °F 99% 30.07 in 4.0 mi Calm Calm - N/A   Clear
2:04 AM 59.0 °F 59.0 °F 100% 30.08 in 2.5 mi Calm Calm - N/A   Clear
2:10 AM 60.8 °F 59.0 °F 94% 30.08 in 3.0 mi West 3.5 mph - N/A   Clear
2:55 AM 63.7 °F 63.7 °F 100% 30.07 in 10.0 mi West 4.6 mph - N/A   Clear
3:35 AM 62.6 °F 62.6 °F 100% 30.06 in 2.5 mi Calm Calm - N/A   Clear
3:36 AM 62.6 °F 62.6 °F 100% 30.06 in 1.8 mi Calm Calm - N/A   Clear
3:37 AM 60.8 °F 60.8 °F 100% 30.06 in 1.2 mi Calm Calm - N/A   Clear
3:38 AM 60.8 °F 60.8 °F 100% 30.06 in 1.0 mi Calm Calm - N/A   Clear
3:39 AM 60.8 °F 59.0 °F 94% 30.06 in 0.8 mi Calm Calm - N/A   Clear
3:41 AM 59.0 °F 59.0 °F 100% 30.06 in 0.5 mi Calm Calm - N/A Fog Fog
3:44 AM 59.0 °F 59.0 °F 100% 30.06 in 0.2 mi Calm Calm - N/A Fog Fog
3:55 AM 58.8 °F 58.5 °F 99% 30.06 in 0.2 mi Calm Calm - N/A Fog Fog
4:55 AM 59.2 °F 58.8 °F 99% 30.07 in 0.2 mi Calm Calm - N/A Fog Fog
5:55 AM 61.2 °F 61.2 °F 100% 30.09 in 0.2 mi Calm Calm - N/A Fog Fog
6:33 AM 59.0 °F 59.0 °F 100% 30.10 in 0.2 mi Calm Calm - N/A Fog Fog
6:45 AM 62.6 °F 62.6 °F 100% 30.10 in 0.5 mi West 5.8 mph - N/A Fog Fog
6:52 AM 62.6 °F 62.6 °F 100% 30.10 in 0.8 mi West 5.8 mph - N/A   Mist
6:55 AM 62.2 °F 62.2 °F 100% 30.10 in 0.8 mi West 5.8 mph - N/A   Mist
6:58 AM 62.6 °F 62.6 °F 100% 30.10 in 1.2 mi West 6.9 mph - N/A   Mostly Cloudy
7:04 AM 62.6 °F 62.6 °F 100% 30.10 in 1.5 mi WNW 5.8 mph - N/A   Overcast
7:09 AM 62.6 °F 62.6 °F 100% 30.11 in 1.2 mi West 5.8 mph - N/A   Overcast
7:20 AM 62.6 °F 62.6 °F 100% 30.11 in 1.5 mi WNW 6.9 mph - N/A   Overcast
7:24 AM 62.6 °F 62.6 °F 100% 30.11 in 2.0 mi WNW 5.8 mph - N/A   Overcast
7:26 AM 62.6 °F 62.6 °F 100% 30.11 in 2.5 mi West 5.8 mph - N/A   Overcast
7:27 AM 62.6 °F 62.6 °F 100% 30.11 in 3.0 mi West 5.8 mph - N/A   Mostly Cloudy
7:35 AM 62.6 °F 62.6 °F 100% 30.11 in 8.0 mi WNW 6.9 mph - N/A   Scattered Clouds
7:55 AM 64.0 °F 64.0 °F 100% 30.11 in 10.0 mi WNW 6.9 mph - 0.01 in   Clear
8:55 AM 66.9 °F 66.9 °F 100% 30.09 in 10.0 mi WNW 6.9 mph - N/A   Clear
9:55 AM 71.6 °F 69.8 °F 94% 30.10 in 10.0 mi NW 11.5 mph - N/A   Scattered Clouds
10:55 AM 78.3 °F 62.6 °F 58% 30.08 in 10.0 mi WNW 11.5 mph 17.3 mph N/A   Scattered Clouds
11:55 AM 79.0 °F 61.2 °F 54% 30.05 in 10.0 mi NW 10.4 mph - N/A   Partly Cloudy
12:55 PM 79.5 °F 60.3 °F 52% 30.02 in 10.0 mi NW 9.2 mph - N/A   Partly Cloudy
1:55 PM 79.3 °F 59.5 °F 51% 30.01 in 10.0 mi WNW 9.2 mph - N/A   Mostly Cloudy
2:55 PM 78.1 °F 54.0 °F 43% 30.00 in 10.0 mi West 9.2 mph - N/A   Scattered Clouds
3:55 PM 76.5 °F 56.3 °F 50% 30.00 in 10.0 mi West 5.8 mph - N/A   Partly Cloudy
4:55 PM 73.9 °F 57.7 °F 57% 30.01 in 10.0 mi NW 6.9 mph - N/A   Clear
5:27 PM 71.6 °F 55.4 °F 57% 30.02 in 10.0 mi WNW 8.1 mph - N/A   Light Drizzle
5:35 PM 71.6 °F 55.4 °F 57% 30.02 in 10.0 mi NW 8.1 mph - N/A   Partly Cloudy
5:47 PM 69.8 °F 55.4 °F 60% 30.03 in 10.0 mi NW 5.8 mph - N/A   Light Drizzle
5:54 PM 69.8 °F 55.4 °F 60% 30.03 in 10.0 mi NW 5.8 mph - N/A   Scattered Clouds
5:55 PM 70.2 °F 55.9 °F 61% 30.03 in 10.0 mi NW 5.8 mph - 0.00 in   Light Drizzle
6:55 PM 65.8 °F 55.6 °F 69% 30.03 in 10.0 mi NW 3.5 mph - N/A   Mostly Cloudy
7:55 PM 63.9 °F 55.6 °F 74% 30.04 in 10.0 mi NW 4.6 mph - N/A   Partly Cloudy
8:55 PM 62.6 °F 56.1 °F 79% 30.05 in 10.0 mi NW 6.9 mph - N/A   Clear
9:55 PM 60.1 °F 55.9 °F 86% 30.06 in 10.0 mi NW 4.6 mph - N/A   Clear
10:55 PM 58.5 °F 55.6 °F 90% 30.05 in 10.0 mi NNW 5.8 mph - N/A   Clear